Regional Weather Roundup
Issued by NWS

Home | Current Version | Previous Version | Graphics & Text | Print | Product List | Glossary On
Versions: 1 2 3 4 5 6 7 8 9 10 11 12 13 14 15 16 17 18 19 20 21 22 23 24 25 26 27 28 29 30 31 32 33 34 35 36 37 38 39 40 41 42 43 44 45 46 47 48 49 50
000
ASUS44 KMEG 212310
RWRTN
TENNESSEE HOURLY STATE WEATHER ROUNDUP
NATIONAL WEATHER SERVICE MEMPHIS TN
600 PM CDT SAT OCT 21 2017

TNZ002-004-019-021-049-052-054-088>092-220000-
WEST TENNESSEE

CITY           SKY/WX    TMP DP  RH WIND       PRES   REMARKS
MEMPHIS INTL   PTCLDY    79  62  56 SE10      30.05R
NWS MEMPHIS      N/A     78 N/A N/A MISG        N/A
JACKSON        CLEAR     76  64  66 SE5       30.09F
DYERSBURG        N/A     76  63  64 SE10      30.07S
SOMERVILLE     CLEAR     75  63  64 VRB5G13   30.07S
COVINGTON      CLEAR     77  63  61 SE8       30.06S
UNION CITY     CLEAR     77  61  57 SE13      30.07S
BOLIVAR        CLEAR     75  63  64 SE9       30.09S
HUNTINGDON     PTCLDY    73  63  68 CALM      30.10S
LEXINGTON      CLEAR     75  63  64 VRB5G12   30.12S
SELMER         CLEAR     75  63  64 SE9       30.11S
SAVANNAH       CLEAR     75  61  60 S7        30.12F
$$

TNZ008-025-027-028-033-062-065-066-220000-
NORTH MIDDLE TENNESSEE

CITY           SKY/WX    TMP DP  RH WIND       PRES   REMARKS
NASHVILLE      MOCLDY    73  56  54 SE7       30.17S
PORTLAND       CLEAR     72  57  60 VRB3      30.16F
CLARKSVILLE    PTCLDY    73  59  61 SE7       30.13F
SMYRNA         PTCLDY    72  57  59 SE6       30.18S
COOKEVILLE     CLEAR     68  50  52 SE5       30.21S
GALLATIN       CLEAR     72  57  60 CALM      30.20S
CROSSVILLE     CLEAR     62  50  64 SE3       30.27R
$$

TNZ061-075-076-078-094-096-097-220000-
SOUTH MIDDLE TENNESSEE

CITY           SKY/WX    TMP DP  RH WIND       PRES   REMARKS
FAYETTEVILLE   CLEAR     70  57  64 SE6       30.18F
TULLAHOMA      CLEAR     70  46  43 SE3       30.22R
WINCHESTER     CLEAR     70  54  56 SE6         N/A
COLUMBIA       CLEAR     72  59  64 SE3       30.15F
SHELBYVILLE    CLEAR     70  55  60 E5        30.18F
$$

TNZ017-018-042-046-047-220000-
NORTHEAST TENNESSEE

CITY           SKY/WX    TMP DP  RH WIND       PRES   REMARKS
TRI CITIES     CLOUDY    67  52  58 CALM      30.28R
ELIZABETHTON   CLEAR     66  52  59 CALM      30.29R
$$

TNZ012-013-036-069-073-074-220000-
CENTRAL EAST TENNESSEE

CITY           SKY/WX    TMP DP  RH WIND       PRES   REMARKS
KNOXVILLE      CLOUDY    71  54  54 NE3       30.24S
DOWNTOWN KNOXV CLEAR     66  59  77 CALM      30.25S
GATLINBURG     CLEAR     68  55  64 CALM      30.25S
MORRISTOWN     CLEAR     70  50  49 CALM      30.26S
JACKSBORO      CLEAR     63  54  72 CALM      30.29S
$$

TNZ083-085-099-220000-
SOUTHEAST TENNESSEE

CITY           SKY/WX    TMP DP  RH WIND       PRES   REMARKS
CHATTANOOGA    CLOUDY    72  48  42 SE6       30.23S
DAYTON         CLEAR     66  61  82 CALM      30.22S
$$

SKY/WX REPORTED AS FAIR MEANS FEW OR NO CLOUDS BELOW
12 THOUSAND FEET.





USA.gov is the U.S. government's official web portal to all federal, state and local government web resources and services.